GSAT0209 (GALILEO 12)

Last updated on Mon Dec 15 2025 00:02:41 GMT+0000 (Coordinated Universal Time)

1 41174U 15079A 25347.67831072 -.00000001 00000+0 00000+0 0 9994 2 41174 55.7133 106.3552 0002431 349.5598 10.4024 1.70474514 61616
UTC large
Height (km)
Speed (km/s)
/
Latitude / Longitude
Inclination (degrees)
Orbital Period (minutes)
Azimuth
Elevation
Range (km)
Doppler Factor

Next 0 passes for location: London (51.5072 / 0.1276)

Sorry there are no passes over London.